Regional Weather Roundup
Issued by NWS San Angelo, TX

Home | Current Version | Previous Version | Text Only | Print | Product List | Glossary On
Versions: 1 2 3 4 5 6 7 8 9 10 11 12 13 14 15 16 17 18 19 20 21 22 23 24 25 26 27 28 29 30 31 32 33 34 35 36 37 38 39 40 41 42 43 44 45 46 47 48 49 50
000
ASUS44 KSJT 030810
RWRSJT
WEST CENTRAL TEXAS REGIONAL WEATHER ROUNDUP
NATIONAL WEATHER SERVICE SAN ANGELO TX
300 AM CDT FRI JUL 03 2015

NOTE: "FAIR" INDICATES FEW OR NO CLOUDS BELOW 12,000 FEET WITH NO
SIGNIFICANT WEATHER AND/OR OBSTRUCTIONS TO VISIBILITY.

TXZ049-054-064>066-071>073-076>078-098-099-113-114-127-128-139-140-
154-155-168>170-030900
...LOCATIONS ACROSS WEST CENTRAL TEXAS...

CITY           SKY/WX    TMP DP  RH WIND       PRES   REMARKS
SAN ANGELO     PTCLDY    73  68  84 CALM      30.00S
ABILENE        CLOUDY    77  67  71 S9        29.99S
DYESS AFB      CLOUDY    76  68  77 S9        29.97F
JUNCTION       CLEAR     73  69  87 E5        30.02R
SWEETWATER     CLOUDY    76  66  72 S8        30.03R
BROWNWOOD      CLOUDY    73  66  78 S7        29.99F
COLEMAN        CLOUDY    75  67  77 S8        29.99F
SONORA         PTCLDY    73  66  78 SE5       30.05S
OZONA          FAIR      73  64  73 S12G21    30.02F
BRADY          PTCLDY    72  70  94 N5        30.01F
$$

TEXAS PANHANDLE/OKLAHOMA PANHANDLE

CITY           SKY/WX    TMP DP  RH WIND       PRES   REMARKS
AMARILLO       CLOUDY    66  62  87 SW5       30.06F
BORGER         MOCLDY    69  66  90 CALM      30.03F
CANADIAN         N/A     66  66  98 CALM      29.98F
DALHART        CLOUDY    70  62  76 NW3       30.11F
DUMAS          PTSUNNY   64  62  92 CALM      30.07F
GUYMON         NOT AVBL
HEREFORD       CLOUDY    68  63  83 MISG      30.10R
PAMPA          PTSUNNY   65  64  97 N6        30.04F FOG
PERRYTON       PTCLDY    66  64  94 W3        30.01F
$$

SOUTHERN PANHANDLE/SOUTH PLAINS/ROLLING PLAINS

CITY           SKY/WX    TMP DP  RH WIND       PRES   REMARKS
LUBBOCK        MOCLDY    71  64  78 E3        30.05S
SNYDER         CLOUDY    73  66  79 CALM      30.02R
CHILDRESS      CLOUDY    74  69  85 N5        29.95F
SEMINOLE       PTSUNNY   70  61  75 S5        30.05F
$$

PERMIAN BASIN

CITY           SKY/WX    TMP DP  RH WIND       PRES   REMARKS
MIDLAND        CLOUDY    74  64  71 SE7       30.02S
ODESSA         MOCLDY    73  63  70 SE7       30.03S
WINK           CLOUDY    75  62  64 E6        29.99F
$$

FAR WEST/SOUTHWEST MOUNTAINS/TRANS PECOS

CITY           SKY/WX    TMP DP  RH WIND       PRES   REMARKS
ALPINE         SUNNY     64  58  82 W3        30.12S
DRYDEN           N/A     75  68  78 E8        29.94S
EL PASO        MOCLDY    83  48  29 E8        30.01S
FORT STOCKTON  MOCLDY    72  62  71 SE8       29.99F
GUADALUPE PASS CLOUDY    68  59  73 NE18      30.15F
MARFA          CLEAR    N/A N/A N/A N6        30.11R
PECOS          MOSUNNY   73  62  67 NE9       29.97F
$$

DALLAS/FORT WORTH METROPLEX

CITY           SKY/WX    TMP DP  RH WIND       PRES   REMARKS
DFW AIRPORT    CLOUDY    82  70  66 SW20      29.92F
FTW MEACHAM    MOCLDY    81  69  67 S16       29.93F
DAL-EXECUTIVE  CLOUDY    79  71  76 VRB7      29.94F
GRAND PRAIRIE  MOCLDY    80  72  76 S10       29.95F
ADDISON        MOCLDY    82  73  76 SW8       29.95F
MESQUITE       CLOUDY    79  73  81 S10G16    29.95F
LANCASTER      CLOUDY    78  71  78 S8        29.96F
$$

NORTH CENTRAL TEXAS

CITY           SKY/WX    TMP DP  RH WIND       PRES   REMARKS
SHRMAN/DENISON CLOUDY    82  72  73 S15       29.93S
GAINESVILLE    CLOUDY    79  69  70 S10       29.94S
BRIDGEPORT     CLOUDY    80  69  70 SW15G22   29.94F
DENTON         CLOUDY    81  67  62 S16G24    29.93S
WAXAHACHIE     CLOUDY    77  73  86 S9        29.97F
GRANBURY         N/A     79  69  71 S10       29.97S
$$

WESTERN NORTH TEXAS

CITY           SKY/WX    TMP DP  RH WIND       PRES   REMARKS
WICHITA FALLS  CLOUDY    81  66  60 SW16      29.89F
VERNON         CLOUDY    80  63  55 S7        29.91F
BRECKENRIDGE   CLOUDY    79  65  62 S12G17    29.95F
COMANCHE       MOCLDY    74  69  83 S10G16    29.98F
$$

CENTRAL AND SOUTH CENTRAL TEXAS

CITY           SKY/WX    TMP DP  RH WIND       PRES   REMARKS
AUSTIN/BERGSTM MOCLDY    75  75 100 SE5       30.00S
WACO           PTCLDY    77  72  84 S12       29.97S
HILLSBORO      CLOUDY    76  71  82 S8        29.97F
TEMPLE         CLEAR     75  70  83 S14       29.98S
KILLEEN-GRAY   MOCLDY    74  72  95 S9        29.99S
FORT HOOD      MOCLDY    75  73  92 S10       29.98F
GEORGETOWN     MOCLDY    79  73  83 S7        29.99S
LAGO VISTA     CLOUDY    76  73  93 S6        30.03S
SAN MARCOS     MOCLDY    75  72  88 S3        30.01S
NEW BRAUNFELS  CLOUDY    77  75  93 S8        29.99S
RANDOLPH AFB   CLOUDY    76  75  96 S6        30.00S
SAN ANTONIO    CLOUDY    79  73  82 S9        30.00F
STINSON        CLOUDY    78  75  90 SE5       29.97S
PLEASANTON     NOT AVBL
LA GRANGE      CLEAR     77  76  96 S3        29.99S FOG
GIDDINGS       SUNNY     75  73  94 CALM      30.05S FOG
$$

EAST TEXAS

CITY           SKY/WX    TMP DP  RH WIND       PRES   REMARKS
PARIS          CLOUDY    79  68  69 S16       29.93F
CLARKSVILLE    NOT AVBL
TYLER          CLOUDY    78  71  79 S8        29.98S
LONGVIEW       CLOUDY    81  74  79 S12       29.97F
PALESTINE      CLOUDY    76  72  87 S5        30.00F
NACOGDOCHES    PTCLDY   N/A N/A N/A S5        30.00S
$$

TEXAS HILL COUNTRY AND EDWARDS PLATEAU

CITY           SKY/WX    TMP DP  RH WIND       PRES   REMARKS
LLANO          MOSUNNY   73  70  88 CALM      30.04F
HORSESHOE BAY  FAIR      75  72  91 S7        30.01S
KERRVILLE      CLOUDY    74  71  92 S9        30.05R
FREDERICKSBRG  MOCLDY    73  70  91 S5        30.03F
ROCKSPRINGS    PTSUNNY   72  70  94 SE15G23   30.04F
HONDO          CLOUDY    74  73  97 SE7       30.01F
UVALDE         PTSUNNY   73  72  98 E7        29.99R FOG
DEL RIO        CLEAR     77  69  76 E13       29.93R
$$

SOUTHEAST TEXAS

CITY           SKY/WX    TMP DP  RH WIND       PRES   REMARKS
COLLEGE STN    PTCLDY    76  73  91 CALM      30.01R
CALDWELL       SUNNY     73  73 100 CALM      30.04S
CROCKETT       MOSUNNY   77  75  94 S5        30.03F
BRENHAM        PTCLDY    76  76  98 CALM      30.01S FOG
HUNTSVILLE     PTCLDY    76  72  87 S3        30.01S
CONROE         CLEAR     73  71  93 CALM      30.01S FOG
HOUSTON BUSH   MOCLDY    76  75  97 S3        30.01R
HOUSTON HOBBY  MOCLDY    77  75  93 CALM      30.00S
PERLAND        CLEAR     77  74  90 CALM      30.02R
WHARTON        SUNNY     74  73  97 CALM      30.01S FOG
$$

THE UPPER TEXAS COAST

CITY           SKY/WX    TMP DP  RH WIND       PRES   REMARKS
ORANGE           N/A     75  75 100 CALM      30.02F FOG
PORT ARTHUR    PTCLDY    77  76  96 S3        30.00F
GALVESTON      MOCLDY    80  73  79 SE13      30.01S
ANGLETON       PTCLDY    77  76  96 CALM      30.00R
BAY CITY       SUNNY     77  77  99 CALM      29.99S
$$

TEXAS COASTAL BEND, RIO GRANDE PLAINS DEEP SOUTH TEXAS

CITY           SKY/WX    TMP DP  RH WIND       PRES   REMARKS
VICTORIA       LGT RAIN  77  77 100 E3        29.99S
BEEVILLE       PTSUNNY  N/A N/A N/A SE5       29.98R HAZE
ROCKPORT       LGT RAIN  82  77  84 VRB6      29.96S
PORT ARANSAS   CLOUDY    79  78  96 S7        29.97R
PORT LAVACA    MOSUNNY   77  75  94 SE3       29.99R
CORPUS CHRISTI CLOUDY    79  77  94 SE6       29.96S
KINGSVILLE NAS PTCLDY    77  77 100 SE5       29.96S
COTULLA        CLEAR     76  74  93 E7        29.95S
LAREDO         CLEAR     78  67  68 SE9       29.94F
BROWNSVILLE    CLEAR     76  73  91 SE5       29.94S
PORT ISABEL    CLEAR     76  73  91 SE3       29.94S
HEBBRONVILLE     N/A     73  69  89 SE6       29.96S
MCALLEN        PTCLDY    76  70  82 SE7       29.93F
WESLACO        CLEAR     74  69  85 SE3       29.93S
FALFURRIAS     SUNNY     75  71  88 E3        29.94F
EDINBURG       CLOUDY    76  71  83 S3        29.94S
$$


USA.gov is the U.S. government's official web portal to all federal, state and local government web resources and services.